When you browse on this site, cookies collect data to enhance your experience and personalize the content and advertising you see.
Visit our Privacy Policy to learn more. By continuing to use the site, you agree to this use of cookies and data.
  • En España
  • Lista de países
  • Para 7 días
  • Temperatura del agua
  • El tiempo en el mapa
  • Informadores
  • user-avatar
    Iniciar sesión

    Tiempo cada hora Makove

    Hoy, 21 Septiembre, Sábado

    Tiempo Temperatura Precipitaciones Viento Presión Humedad
    00:00 +4°C° 0 mm 3 mps 747 mmHg 91%
    01:00 +4°C° 0 mm 3 mps 747 mmHg 89%
    02:00 +5°C° 0 mm 3 mps 747 mmHg 89%
    03:00 +4°C° 0 mm 3 mps 748 mmHg 91%
    04:00 +3°C° 0 mm 3 mps 748 mmHg 92%
    05:00 +2°C° 0 mm 3 mps 748 mmHg 94%
    06:00 +3°C° 0 mm 3 mps 748 mmHg 90%
    07:00 +3°C° 0 mm 3 mps 748 mmHg 86%
    08:00 +4°C° 0 mm 3 mps 749 mmHg 83%
    09:00 +6°C° 0 mm 4 mps 749 mmHg 74%
    10:00 +7°C° 0 mm 4 mps 749 mmHg 66%
    11:00 +10°C° 0 mm 4 mps 749 mmHg 58%
    12:00 +9°C° 0 mm 5 mps 749 mmHg 54%
    13:00 +9°C° 0 mm 5 mps 748 mmHg 49%
    14:00 +9°C° 0 mm 5 mps 748 mmHg 46%
    15:00 +10°C° 0 mm 4 mps 748 mmHg 49%
    16:00 +10°C° 0 mm 3 mps 747 mmHg 52%
    17:00 +9°C° 0 mm 3 mps 747 mmHg 55%
    18:00 +9°C° 0.1 mm 3 mps 747 mmHg 59%
    19:00 +8°C° 0.1 mm 3 mps 746 mmHg 62%
    20:00 +7°C° 0.1 mm 4 mps 746 mmHg 65%
    21:00 +7°C° 0.3 mm 5 mps 745 mmHg 74%
    22:00 +7°C° 0.3 mm 6 mps 744 mmHg 82%
    23:00 +7°C° 0.3 mm 6 mps 743 mmHg 91%

    Mañana, 22 Septiembre, Domingo

    Tiempo Temperatura Precipitaciones Viento Presión Humedad
    00:00 +7°C° 0.7 mm 6 mps 742 mmHg 92%
    01:00 +8°C° 0.7 mm 6 mps 742 mmHg 94%
    02:00 +9°C° 0.7 mm 6 mps 741 mmHg 95%
    03:00 +9°C° 0.5 mm 7 mps 741 mmHg 94%
    04:00 +10°C° 0.5 mm 7 mps 741 mmHg 93%
    05:00 +10°C° 0.5 mm 7 mps 740 mmHg 92%
    06:00 +11°C° 0.2 mm 8 mps 741 mmHg 89%
    07:00 +11°C° 0.2 mm 8 mps 741 mmHg 86%
    08:00 +11°C° 0.2 mm 8 mps 741 mmHg 84%
    09:00 +11°C° 0.1 mm 8 mps 742 mmHg 81%
    10:00 +11°C° 0.1 mm 8 mps 742 mmHg 78%
    11:00 +11°C° 0.1 mm 8 mps 742 mmHg 76%
    12:00 +11°C° 0.2 mm 8 mps 742 mmHg 77%
    13:00 +11°C° 0.2 mm 8 mps 742 mmHg 79%
    14:00 +11°C° 0.2 mm 8 mps 742 mmHg 80%
    15:00 +11°C° 0.2 mm 7 mps 742 mmHg 80%
    16:00 +10°C° 0.2 mm 6 mps 742 mmHg 80%
    17:00 +10°C° 0.2 mm 5 mps 742 mmHg 81%
    18:00 +9°C° 0.2 mm 5 mps 743 mmHg 81%
    19:00 +8°C° 0.2 mm 4 mps 743 mmHg 81%
    20:00 +7°C° 0.2 mm 4 mps 744 mmHg 81%
    21:00 +7°C° 0 mm 4 mps 744 mmHg 81%
    22:00 +7°C° 0 mm 3 mps 745 mmHg 82%
    23:00 +5°C° 0 mm 3 mps 745 mmHg 83%

    Pasado mañana, 23 Septiembre, Lunes

    Tiempo Temperatura Precipitaciones Viento Presión Humedad
    00:00 +4°C° 0 mm 3 mps 746 mmHg 85%
    01:00 +3°C° 0 mm 3 mps 747 mmHg 87%
    02:00 +2°C° 0 mm 3 mps 747 mmHg 89%
    03:00 +2°C° 0 mm 2 mps 747 mmHg 90%
    04:00 +2°C° 0 mm 2 mps 748 mmHg 91%
    05:00 +1°C° 0 mm 2 mps 748 mmHg 91%
    06:00 +1°C° 0 mm 3 mps 748 mmHg 87%
    07:00 +2°C° 0 mm 3 mps 749 mmHg 83%
    08:00 +3°C° 0 mm 3 mps 749 mmHg 79%
    09:00 +5°C° 0 mm 3 mps 750 mmHg 70%
    10:00 +7°C° 0 mm 3 mps 750 mmHg 61%
    11:00 +9°C° 0 mm 3 mps 750 mmHg 53%
    12:00 +10°C° 0 mm 3 mps 750 mmHg 49%
    13:00 +10°C° 0 mm 3 mps 750 mmHg 45%
    14:00 +11°C° 0 mm 3 mps 750 mmHg 41%
    15:00 +10°C° 0 mm 3 mps 750 mmHg 45%
    16:00 +9°C° 0 mm 2 mps 750 mmHg 50%
    17:00 +8°C° 0 mm 2 mps 749 mmHg 54%
    18:00 +7°C° 0 mm 2 mps 750 mmHg 58%
    19:00 +5°C° 0 mm 2 mps 750 mmHg 61%
    20:00 +4°C° 0 mm 2 mps 750 mmHg 65%
    21:00 +5°C° 0 mm 1 mps 750 mmHg 67%
    22:00 +4°C° 0 mm 1 mps 750 mmHg 70%
    23:00 +4°C° 0 mm 1 mps 750 mmHg 72%

    24 Septiembre, Martes

    Tiempo Temperatura Precipitaciones Viento Presión Humedad
    00:00 +2°C° 0 mm 0 mps 750 mmHg 73%
    01:00 +2°C° 0 mm 0 mps 751 mmHg 73%
    02:00 +2°C° 0 mm 0 mps 751 mmHg 74%
    03:00 +2°C° 0 mm 0 mps 750 mmHg 74%
    04:00 +2°C° 0 mm 0 mps 750 mmHg 75%
    05:00 +2°C° 0 mm 0 mps 750 mmHg 76%
    06:00 +3°C° 0 mm 0 mps 750 mmHg 71%
    07:00 +4°C° 0 mm 0 mps 750 mmHg 66%
    08:00 +6°C° 0 mm 0 mps 750 mmHg 61%
    09:00 +7°C° 0 mm 0 mps 750 mmHg 56%
    10:00 +8°C° 0 mm 0 mps 750 mmHg 52%
    11:00 +10°C° 0 mm 0 mps 750 mmHg 47%
    12:00 +10°C° 0 mm 0 mps 750 mmHg 45%
    13:00 +10°C° 0 mm 0 mps 750 mmHg 43%
    14:00 +11°C° 0 mm 0 mps 749 mmHg 41%
    15:00 +10°C° 0 mm 0 mps 749 mmHg 45%
    16:00 +10°C° 0 mm 1 mps 749 mmHg 48%
    17:00 +10°C° 0 mm 1 mps 749 mmHg 51%
    18:00 +8°C° 0 mm 1 mps 749 mmHg 54%
    19:00 +7°C° 0 mm 1 mps 749 mmHg 57%
    20:00 +5°C° 0 mm 2 mps 749 mmHg 60%
    21:00 +4°C° 0 mm 2 mps 749 mmHg 62%
    22:00 +4°C° 0 mm 2 mps 749 mmHg 65%
    23:00 +3°C° 0 mm 2 mps 749 mmHg 67%

    25 Septiembre, Miércoles

    Tiempo Temperatura Precipitaciones Viento Presión Humedad
    00:00 +3°C° 0 mm 2 mps 749 mmHg 68%
    01:00 +3°C° 0 mm 2 mps 749 mmHg 69%
    02:00 +2°C° 0 mm 2 mps 749 mmHg 70%
    03:00 +2°C° 0 mm 2 mps 748 mmHg 71%
    04:00 +2°C° 0 mm 2 mps 748 mmHg 72%
    05:00 +2°C° 0 mm 2 mps 748 mmHg 73%
    06:00 +2°C° 0 mm 3 mps 748 mmHg 68%
    07:00 +4°C° 0 mm 3 mps 748 mmHg 63%
    08:00 +5°C° 0 mm 3 mps 748 mmHg 57%
    09:00 +8°C° 0 mm 3 mps 748 mmHg 52%
    10:00 +10°C° 0 mm 3 mps 748 mmHg 47%
    11:00 +12°C° 0 mm 4 mps 748 mmHg 41%
    12:00 +13°C° 0 mm 4 mps 748 mmHg 41%
    13:00 +14°C° 0 mm 4 mps 748 mmHg 40%
    14:00 +14°C° 0 mm 4 mps 747 mmHg 40%
    15:00 +13°C° 0 mm 3 mps 747 mmHg 45%
    16:00 +12°C° 0 mm 3 mps 747 mmHg 50%
    17:00 +11°C° 0 mm 3 mps 746 mmHg 55%
    18:00 +11°C° 0 mm 4 mps 746 mmHg 53%
    19:00 +10°C° 0 mm 4 mps 746 mmHg 52%
    20:00 +9°C° 0 mm 5 mps 746 mmHg 51%
    21:00 +9°C° 0 mm 5 mps 746 mmHg 50%
    22:00 +9°C° 0 mm 5 mps 746 mmHg 49%
    23:00 +9°C° 0 mm 5 mps 745 mmHg 49%

    26 Septiembre, Jueves

    Tiempo Temperatura Precipitaciones Viento Presión Humedad
    00:00 +9°C° 0.1 mm 5 mps 745 mmHg 54%
    01:00 +9°C° 0.1 mm 5 mps 745 mmHg 60%
    02:00 +9°C° 0.1 mm 5 mps 745 mmHg 65%
    03:00 +9°C° 0.1 mm 5 mps 745 mmHg 70%
    04:00 +8°C° 0.1 mm 5 mps 744 mmHg 74%
    05:00 +8°C° 0.1 mm 5 mps 744 mmHg 78%
    06:00 +9°C° 0 mm 5 mps 744 mmHg 77%
    07:00 +10°C° 0 mm 5 mps 744 mmHg 75%
    08:00 +10°C° 0 mm 5 mps 744 mmHg 74%
    09:00 +13°C° 0 mm 5 mps 744 mmHg 68%
    10:00 +15°C° 0 mm 6 mps 744 mmHg 62%
    11:00 +17°C° 0 mm 6 mps 744 mmHg 55%
    12:00 +16°C° 0 mm 6 mps 744 mmHg 58%
    13:00 +15°C° 0 mm 6 mps 743 mmHg 60%
    14:00 +15°C° 0 mm 5 mps 743 mmHg 62%
    15:00 +14°C° 0.4 mm 5 mps 743 mmHg 70%
    16:00 +13°C° 0.4 mm 5 mps 742 mmHg 79%
    17:00 +12°C° 0.4 mm 4 mps 742 mmHg 87%
    18:00 +12°C° 0.6 mm 4 mps 742 mmHg 89%
    19:00 +12°C° 0.6 mm 4 mps 742 mmHg 91%
    20:00 +12°C° 0.6 mm 3 mps 742 mmHg 93%
    21:00 +12°C° 0.1 mm 3 mps 742 mmHg 94%
    22:00 +12°C° 0.1 mm 3 mps 742 mmHg 95%
    23:00 +12°C° 0.1 mm 3 mps 741 mmHg 96%
    Mostrar más